GW0029 Weather Reports


Display with metric or nautical units.
time (UTC)temp
F
wind
direction
speed
MPH
gust
MPH
rain 1hr
in
rain 24hr
in
rain mn
in
humidity
%
barometer
mb
20260506235004 40 0 0.0 0.0 0.00 0.00 0.00 67 1013.0
20260506234505 40 107 1.0 4.0 0.00 0.00 0.00 67 1013.0
20260506234005 40 110 2.0 5.0 0.00 0.00 0.00 66 1012.0
20260506233006 41 94 1.0 4.0 0.00 0.00 0.00 65 1012.0
20260506232504 42 0 0.0 0.0 0.00 0.00 0.00 67 1013.0
20260506232005 42 0 0.0 0.0 0.00 0.00 0.00 66 1013.0
20260506231504 42 0 0.0 0.0 0.00 0.00 0.00 67 1013.0
20260506231005 42 0 0.0 0.0 0.00 0.00 0.00 67 1012.0
20260506230504 42 0 0.0 0.0 0.00 0.00 0.00 68 1012.0
20260506230005 42 0 0.0 0.0 0.00 0.00 0.00 67 1012.0
20260506225006 42 0 0.0 0.0 0.00 0.00 0.00 66 1012.0
20260506224504 42 0 0.0 0.0 0.00 0.00 0.00 65 1012.0
20260506224004 42 0 0.0 0.0 0.00 0.00 0.00 65 1012.0
20260506223504 42 0 0.0 0.0 0.00 0.00 0.00 64 1012.0
20260506223004 42 0 0.0 0.0 0.00 0.00 0.00 63 1012.0
20260506222005 42 0 0.0 0.0 0.00 0.00 0.00 60 1012.0
20260506221504 42 0 0.0 0.0 0.00 0.00 0.00 59 1012.0
20260506221004 42 0 0.0 0.0 0.00 0.00 0.00 59 1012.0
20260506220505 43 0 0.0 0.0 0.00 0.00 0.00 58 1012.0
20260506220005 43 0 0.0 0.0 0.00 0.00 0.00 57 1012.0
20260506215505 44 0 0.0 0.0 0.00 0.00 0.00 56 1012.0
20260506215005 44 198 0.0 5.0 0.00 0.00 0.00 55 1012.0
20260506214505 44 195 1.0 5.0 0.00 0.00 0.00 55 1012.0
20260506214004 44 195 0.0 2.0 0.00 0.00 0.00 53 1011.0
20260506213506 44 200 0.0 2.0 0.00 0.00 0.00 52 1011.0
20260506213005 44 198 1.0 3.0 0.00 0.00 0.00 52 1011.0
20260506212504 44 197 1.0 3.0 0.00 0.00 0.00 51 1011.0
20260506212006 45 0 0.0 0.0 0.00 0.00 0.00 50 1011.0
20260506211506 45 0 0.0 0.0 0.00 0.00 0.00 49 1011.0
20260506211004 45 162 0.0 3.0 0.00 0.00 0.00 47 1011.0
20260506210505 45 170 0.0 3.0 0.00 0.00 0.00 46 1011.0
20260506210004 45 203 0.0 1.0 0.00 0.00 0.00 45 1011.0
20260506205505 45 0 0.0 0.0 0.00 0.00 0.00 45 1011.0
20260506205005 45 0 0.0 0.0 0.00 0.00 0.00 45 1011.0
20260506204006 46 0 0.0 0.0 0.00 0.00 0.00 44 1011.0
20260506203005 46 0 0.0 0.0 0.00 0.00 0.00 43 1011.0
20260506202505 46 0 0.0 0.0 0.00 0.00 0.00 43 1011.0
20260506202005 47 0 0.0 0.0 0.00 0.00 0.00 43 1011.0
20260506201504 47 0 0.0 0.0 0.00 0.00 0.00 43 1011.0
20260506201005 47 0 0.0 0.0 0.00 0.00 0.00 43 1011.0
20260506200505 47 225 0.0 2.0 0.00 0.00 0.00 42 1011.0
20260506195505 47 0 0.0 0.0 0.00 0.00 0.00 42 1011.0
20260506195006 48 0 0.0 0.0 0.00 0.00 0.00 42 1011.0
20260506194504 48 0 0.0 0.0 0.00 0.00 0.00 43 1011.0
20260506194005 48 0 0.0 0.0 0.00 0.00 0.00 43 1011.0
20260506193505 48 203 0.0 1.0 0.00 0.00 0.00 42 1011.0
20260506193005 49 203 0.0 1.0 0.00 0.00 0.00 42 1011.0
20260506192004 49 0 0.0 0.0 0.00 0.00 0.00 41 1011.0
20260506191505 50 0 0.0 0.0 0.00 0.00 0.00 41 1011.0
20260506191005 50 244 0.0 2.0 0.00 0.00 0.00 41 1010.0
20260506190006 51 240 0.0 2.0 0.00 0.00 0.00 41 1010.0
20260506185504 51 248 0.0 2.0 0.00 0.00 0.00 41 1010.0
20260506185005 51 0 0.0 0.0 0.00 0.00 0.00 40 1010.0
20260506184505 52 282 0.0 3.0 0.00 0.00 0.00 40 1010.0
20260506184004 52 282 0.0 3.0 0.00 0.00 0.00 40 1010.0
20260506183006 53 248 0.0 1.0 0.00 0.00 0.00 40 1010.0
20260506182505 53 0 0.0 0.0 0.00 0.00 0.00 39 1009.0
20260506181505 53 279 0.0 4.0 0.00 0.00 0.00 39 1009.0
20260506181004 54 301 0.0 3.0 0.00 0.00 0.00 39 1010.0
20260506180005 54 294 0.0 5.0 0.00 0.00 0.00 39 1010.0
20260506175505 55 277 1.0 8.0 0.00 0.00 0.00 39 1010.0
20260506175005 55 273 2.0 8.0 0.00 0.00 0.00 39 1010.0
20260506174504 55 269 1.0 5.0 0.00 0.00 0.00 39 1010.0
20260506174005 56 294 1.0 5.0 0.00 0.00 0.00 38 1010.0
20260506173504 56 294 1.0 6.0 0.00 0.00 0.00 37 1010.0
20260506173006 56 285 1.0 6.0 0.00 0.00 0.00 39 1010.0
20260506172504 56 257 0.0 3.0 0.00 0.00 0.00 39 1010.0
20260506171504 56 302 2.0 6.0 0.00 0.00 0.00 39 1010.0
20260506170504 56 298 2.0 7.0 0.00 0.00 0.00 38 1010.0
20260506170005 56 279 1.0 5.0 0.00 0.00 0.00 39 1010.0
20260506165504 56 287 1.0 4.0 0.00 0.00 0.00 40 1010.0
20260506165005 56 297 2.0 5.0 0.00 0.00 0.00 39 1010.0
20260506164505 56 308 3.0 8.0 0.00 0.00 0.00 38 1010.0
20260506163504 56 298 3.0 7.0 0.00 0.00 0.00 37 1010.0
20260506161005 57 293 5.0 10.0 0.00 0.00 0.00 37 1010.0
20260506160504 58 309 6.0 10.0 0.00 0.00 0.00 36 1010.0
20260506160004 58 312 7.0 14.0 0.00 0.00 0.00 36 1010.0
20260506155505 58 302 7.0 14.0 0.00 0.00 0.00 37 1010.0
20260506155004 58 307 6.0 11.0 0.00 0.00 0.00 38 1010.0
20260506154505 58 310 7.0 12.0 0.00 0.00 0.00 37 1010.0
20260506154005 58 302 6.0 12.0 0.00 0.00 0.00 37 1010.0
20260506153504 58 308 5.0 11.0 0.00 0.00 0.00 39 1010.0
20260506153006 58 312 8.0 13.0 0.00 0.00 0.00 39 1010.0
20260506152504 58 311 8.0 13.0 0.00 0.00 0.00 37 1010.0
20260506152005 58 306 6.0 13.0 0.00 0.00 0.00 37 1010.0
20260506151504 58 302 6.0 11.0 0.00 0.00 0.00 38 1010.0
20260506151005 58 298 5.0 10.0 0.00 0.00 0.00 38 1010.0
20260506150504 58 298 5.0 10.0 0.00 0.00 0.00 39 1010.0
20260506150005 58 287 5.0 8.0 0.00 0.00 0.00 38 1010.0
20260506145504 58 289 5.0 11.0 0.00 0.00 0.00 38 1010.0
20260506145007 57 305 6.0 14.0 0.00 0.00 0.00 39 1010.0
20260506144504 57 299 5.0 14.0 0.00 0.00 0.00 38 1010.0
20260506144005 57 284 5.0 10.0 0.00 0.00 0.00 38 1010.0
20260506143505 58 310 7.0 15.0 0.00 0.00 0.00 40 1010.0
20260506143005 57 312 9.0 16.0 0.00 0.00 0.00 40 1010.0
20260506142004 58 305 7.0 13.0 0.00 0.00 0.00 40 1010.0
20260506141006 58 290 6.0 15.0 0.00 0.00 0.00 39 1010.0
20260506140504 58 295 6.0 15.0 0.00 0.00 0.00 39 1010.0
20260506140005 58 300 5.0 11.0 0.00 0.00 0.00 39 1010.0
20260506135005 58 321 10.0 15.0 0.00 0.00 0.00 38 1010.0
20260506134505 58 315 9.0 15.0 0.00 0.00 0.00 39 1010.0
20260506134004 58 288 7.0 13.0 0.00 0.00 0.00 41 1010.0
20260506133505 58 296 7.0 13.0 0.00 0.00 0.00 39 1010.0
20260506132505 59 300 7.0 13.0 0.00 0.00 0.00 41 1010.0
20260506132005 58 300 7.0 15.0 0.00 0.00 0.00 41 1010.0
20260506131006 59 287 6.0 11.0 0.00 0.00 0.00 41 1009.0
20260506130504 59 284 6.0 11.0 0.00 0.00 0.00 41 1009.0
20260506130005 59 284 5.0 11.0 0.00 0.00 0.00 41 1009.0
20260506125504 59 285 6.0 10.0 0.00 0.00 0.00 41 1009.0
20260506124504 60 294 7.0 15.0 0.00 0.00 0.00 41 1009.0
20260506124005 60 289 6.0 12.0 0.00 0.00 0.00 42 1009.0
20260506123504 60 311 8.0 16.0 0.00 0.00 0.00 43 1009.0
20260506123007 60 303 7.0 16.0 0.00 0.00 0.00 41 1009.0
20260506122504 61 265 5.0 15.0 0.00 0.00 0.00 40 1009.0
20260506122004 61 240 4.0 7.0 0.00 0.00 0.00 42 1009.0
20260506121005 61 246 4.0 8.0 0.00 0.00 0.00 41 1009.0
20260506120504 61 242 5.0 9.0 0.00 0.00 0.00 44 1009.0
20260506120005 61 238 5.0 10.0 0.00 0.00 0.00 43 1009.0
20260506115504 61 243 5.0 10.0 0.00 0.00 0.00 43 1009.0
20260506115006 61 250 4.0 10.0 0.00 0.00 0.00 44 1009.0
20260506114504 60 244 3.0 10.0 0.00 0.00 0.00 40 1009.0
20260506113504 60 319 3.0 7.0 0.00 0.00 0.00 35 1010.0
20260506113005 60 20 3.0 8.0 0.00 0.00 0.00 36 1010.0
20260506112505 60 24 5.0 8.0 0.00 0.00 0.00 35 1010.0
20260506111505 59 47 5.0 8.0 0.00 0.00 0.00 36 1010.0
20260506110005 58 321 1.0 7.0 0.00 0.00 0.00 35 1010.0
20260506105504 58 26 2.0 6.0 0.00 0.00 0.00 36 1010.0
20260506105005 59 63 4.0 7.0 0.00 0.00 0.00 36 1010.0
20260506104004 58 334 6.0 11.0 0.00 0.00 0.00 36 1010.0
20260506103504 58 12 4.0 10.0 0.00 0.00 0.00 36 1010.0
20260506103004 58 86 3.0 8.0 0.00 0.00 0.00 35 1010.0
20260506102505 58 80 5.0 9.0 0.00 0.00 0.00 37 1010.0
20260506102005 58 89 6.0 9.0 0.00 0.00 0.00 36 1010.0
20260506101505 58 87 5.0 10.0 0.00 0.00 0.00 39 1010.0
20260506101004 58 56 6.0 12.0 0.00 0.00 0.00 37 1010.0
20260506100505 58 83 7.0 12.0 0.00 0.00 0.00 36 1010.0
20260506100005 58 92 4.0 10.0 0.00 0.00 0.00 38 1010.0
20260506095505 58 63 3.0 8.0 0.00 0.00 0.00 39 1010.0
20260506095005 58 75 7.0 11.0 0.00 0.00 0.00 37 1010.0
20260506094505 58 92 7.0 11.0 0.00 0.00 0.00 37 1010.0
20260506093504 57 26 5.0 7.0 0.00 0.00 0.00 36 1010.0
20260506093005 58 50 5.0 8.0 0.00 0.00 0.00 37 1010.0
20260506092504 58 90 6.0 12.0 0.00 0.00 0.00 38 1010.0
20260506092005 57 82 7.0 12.0 0.00 0.00 0.00 39 1010.0
20260506091504 57 52 6.0 11.0 0.00 0.00 0.00 38 1010.0
20260506091006 57 38 6.0 9.0 0.00 0.00 0.00 38 1010.0
20260506090504 57 62 6.0 9.0 0.00 0.00 0.00 37 1010.0
20260506090006 57 89 7.0 12.0 0.00 0.00 0.00 40 1010.0
20260506085004 57 92 8.0 13.0 0.00 0.00 0.00 38 1009.0
20260506084505 57 89 8.0 13.0 0.00 0.00 0.00 40 1009.0
20260506084005 57 57 7.0 12.0 0.00 0.00 0.00 40 1009.0
20260506083505 57 55 7.0 10.0 0.00 0.00 0.00 39 1009.0
20260506082505 56 76 7.0 10.0 0.00 0.00 0.00 41 1009.0
20260506082006 56 71 7.0 10.0 0.00 0.00 0.00 41 1009.0
20260506081504 56 63 7.0 11.0 0.00 0.00 0.00 42 1009.0
20260506080504 56 76 7.0 9.0 0.00 0.00 0.00 43 1010.0
20260506073504 54 91 8.0 13.0 0.00 0.00 0.00 44 1010.0
20260506073005 54 77 8.0 14.0 0.00 0.00 0.00 44 1010.0
20260506072504 53 69 8.0 14.0 0.00 0.00 0.00 44 1010.0
20260506072006 53 72 8.0 12.0 0.00 0.00 0.00 44 1010.0
20260506071504 53 79 9.0 12.0 0.00 0.00 0.00 43 1010.0
20260506071005 53 82 9.0 11.0 0.00 0.00 0.00 45 1010.0
20260506070504 52 84 8.0 11.0 0.00 0.00 0.00 46 1010.0
20260506062505 49 72 7.0 11.0 0.00 0.00 0.00 49 1010.0
20260506062004 48 66 4.0 10.0 0.00 0.00 0.00 48 1010.0
20260506061504 48 67 2.0 5.0 0.00 0.00 0.00 49 1010.0
20260506061005 47 66 1.0 4.0 0.00 0.00 0.00 51 1010.0
20260506060505 46 63 3.0 6.0 0.00 0.00 0.00 52 1010.0
20260506051005 39 64 1.0 5.0 0.00 0.00 0.00 61 1010.0
20260506050504 39 68 1.0 5.0 0.00 0.00 0.00 61 1010.0
20260506045005 38 76 2.0 4.0 0.00 0.00 0.00 64 1010.0
20260506044504 38 76 3.0 5.0 0.00 0.00 0.00 65 1010.0
20260506044005 37 75 2.0 5.0 0.00 0.00 0.00 65 1010.0
20260506043505 37 0 0.0 0.0 0.00 0.00 0.00 65 1010.0
20260506043005 37 0 0.0 0.0 0.00 0.00 0.00 65 1010.0
20260506042504 37 0 0.0 0.0 0.00 0.00 0.00 65 1010.0
20260506042005 36 79 1.0 7.0 0.00 0.00 0.00 65 1010.0
20260506040006 35 85 4.0 6.0 0.00 0.00 0.00 65 1010.0
20260506035504 35 84 2.0 5.0 0.00 0.00 0.00 65 1010.0
20260506035005 35 83 3.0 5.0 0.00 0.00 0.00 66 1010.0
20260506034504 35 83 5.0 8.0 0.00 0.00 0.00 66 1010.0
20260506034004 35 79 5.0 8.0 0.00 0.00 0.00 66 1010.0
20260506033505 35 76 4.0 6.0 0.00 0.00 0.00 66 1010.0
20260506033005 34 77 4.0 6.0 0.00 0.00 0.00 67 1010.0
20260506032505 34 79 4.0 6.0 0.00 0.00 0.00 67 1011.0
20260506032004 34 86 4.0 5.0 0.00 0.00 0.00 67 1011.0
20260506031004 34 78 4.0 8.0 0.00 0.00 0.00 67 1011.0
20260506030505 34 76 4.0 7.0 0.00 0.00 0.00 67 1011.0
20260506030005 34 83 4.0 5.0 0.00 0.00 0.00 67 1011.0
20260506025505 34 82 3.0 5.0 0.00 0.00 0.00 68 1011.0
20260506025004 34 80 2.0 5.0 0.00 0.00 0.00 68 1011.0
20260506024504 34 104 0.0 4.0 0.00 0.00 0.00 67 1011.0
20260506024005 34 0 0.0 0.0 0.00 0.00 0.00 68 1011.0
20260506023005 34 100 3.0 5.0 0.00 0.00 0.00 67 1011.0
20260506022504 34 103 5.0 7.0 0.00 0.00 0.00 68 1011.0
20260506022006 34 106 5.0 7.0 0.00 0.00 0.00 68 1011.0
20260506021504 34 100 5.0 8.0 0.00 0.00 0.00 68 1011.0
20260506020504 34 107 6.0 7.0 0.00 0.00 0.00 69 1011.0
20260506020005 34 104 4.0 7.0 0.00 0.00 0.00 68 1011.0
20260506015505 34 90 1.0 5.0 0.00 0.00 0.00 68 1011.0
20260506015005 34 0 0.0 0.0 0.00 0.00 0.00 67 1011.0
20260506013505 34 0 0.0 0.0 0.00 0.00 0.00 67 1010.0
20260506013004 34 0 0.0 0.0 0.00 0.00 0.00 67 1010.0
20260506012004 34 0 0.0 0.0 0.00 0.00 0.00 66 1010.0
20260506011505 34 0 0.0 0.0 0.00 0.00 0.00 66 1010.0
20260506011004 34 0 0.0 0.0 0.00 0.00 0.00 65 1010.0
20260506010504 35 0 0.0 0.0 0.00 0.00 0.00 64 1010.0
20260506010005 35 105 0.0 4.0 0.00 0.00 0.00 64 1010.0
20260506005504 35 113 1.0 5.0 0.00 0.00 0.00 64 1010.0
20260506005005 35 111 4.0 6.0 0.00 0.00 0.00 64 1010.0
20260506004504 35 109 5.0 6.0 0.00 0.00 0.00 64 1010.0
20260506004004 35 106 4.0 5.0 0.00 0.00 0.00 63 1010.0
20260506003504 35 101 4.0 5.0 0.00 0.00 0.00 63 1010.0
20260506003005 35 102 2.0 5.0 0.00 0.00 0.00 64 1010.0
20260506002504 35 112 1.0 5.0 0.00 0.00 0.00 62 1010.0
20260506002005 36 112 0.0 4.0 0.00 0.00 0.00 62 1010.0
20260506001504 36 105 1.0 5.0 0.00 0.00 0.00 62 1010.0
20260506001005 36 98 3.0 5.0 0.00 0.00 0.00 62 1010.0
20260506000504 36 94 1.0 5.0 0.00 0.00 0.00 62 1010.0
20260506000006 36 92 1.0 3.0 0.00 0.00 0.00 61 1010.0